FENGYUN 1C DEB, 46992

Orbit data source: Space-Track

FENGYUN 1C DEB, 46992 is space debris in SSO originally from a launch on Mon, 10 May 1999 UTC launched from the Taiyaun Space Center, China (TSC). Fengyun 1C debris stems from the Chinese weather satellite Fengyun-1C, which was intentionally destroyed by a Chinese anti-satellite missile in 2007. This event dramatically increased the amount of space debris, with thousands of trackable fragments posing hazards to satellites and human spaceflight. The Fengyun 1C debris cloud has become a focal point in discussions about space sustainability and the need for international regulations to prevent the creation of new debris.

Loading next visibility...
Identifier
46992, 1999-025EZS
Orbit
SSO
Country
Flag of CNCN / PRC
Related business
Manufacturer
Unknown
Mission
Spacecraft
Bus & Motor
Unknown
Mass
Unknown
Launch date (UTC)
1999-05-10 (26 years ago)
Launch vehicle
Unknown
Launch site
Taiyaun Space Center, China (TSC)
Object type
Payload
Rocket body
Debris
Shape & HBR
Unknown shape, 0.1 m
Radar Cross Section
Small (<0.1 m²)

Expand to show TLE details & history
Last TLE update: 1 day ago

TLE from 1 day ago
0 FENGYUN 1C DEB
1 46992U 99025EZS 25310.25598644  .00000776  00000-0  53859-3 0  9992
2 46992  98.8901 297.9864 0071366 262.2681  97.0377 14.00632475604467
Epoch: 2025-11-06T06:08Z
TLE epoch observation values (Epoch: 2025-11-06T06:08:37.228Z)
Latitude
0.00004°
Longitude
160.11436°
Altitude
901.21 km
Speed
7.398 km/s
True Right ascension
19h 51m 56s
True Declination
0° 00' 00"
Sunlit
Object was in daylight at epoch
Visualization orbit readout
Latitude
Unknown
Longitude
Unknown
Altitude
Unknown
Speed
Unknown
Apparent Right ascension
Unknown
Apparent Declination
Unknown
Sunlit
N/A
Visualization observer readout
Local Sidereal Time
11:45:35
Azimuth
Unknown
Elevation
Unknown
Doppler factor
Unknown
Orbital elements
Apogee altitude
940.66 km
Perigee altitude
836.938 km
Semi-major axis
7,266.936 km
Eccentricity
0.00714
Inclination
98.8901°
RAAN
297.9864°
Arg. of periapsis
262.2681°
True anomaly
97.84842°
Mean anomaly
97.0377°
Eccentric anomaly
97.44315°
Mean motion
3.50361 °/min
Orbital period
102.75 mins
BSTAR
0.00053859
Loading maneuver chart data...
Computing Atmospheric mass density...

Documentation

Showing up to 5 results
|